Weather History for KGSO - February, 2014

Change the Weather History Date:

Wednesday, February 5, 2014

  Actual Average Record
Temperature  
Mean Temperature 44 °F 41 °F  
Max Temperature 52 °F 50 °F 74 °F (2008)
Min Temperature 36 °F 31 °F 1 °F (1996)
Degree Days  
Heating Degree Days 21 24  
Month to date heating degree days 100 124  
Since 1 July heating degree days 2438 2347  
Cooling Degree Days 0 0  
Month to date cooling degree days 0 0  
Year to date cooling degree days 0 0  
Moisture  
Dew Point 36 °F    
Average Humidity 75    
Maximum Humidity 100    
Minimum Humidity 50    
Precipitation  
Precipitation 0.05 in 0.10 in 1.59 in (1960)
Month to date precipitation 0.43 0.50  
Year to date precipitation 4.41 3.56  
Snow  
Snow 0.00 in 0.10 in 4.50 in (1905)
Month to date snowfall 0.0 0.5  
Since 1 July snowfall 1.6 4.8  
Snow Depth 0.00 in    
Sea Level Pressure  
Sea Level Pressure 29.92 in    
Wind  
Wind Speed 8 mph (WNW)    
Max Wind Speed 22 mph    
Max Gust Speed 29 mph    
Visibility 5 miles    
Events Fog , Rain    
T = Trace of Precipitation, MM = Missing Value Source: NWS Daily Summary

Daily Weather History Graph

Daily Weather History Graph

Search for Another Location

Airport or City:

Trip Planner

Search our weather history database for the weather conditions in past years. The results will help you decide how hot, cold, wet, or windy it might be!

Date:

Astronomy

Feb. 05, 2014 Rise Set
Actual Time 7:17 AM EST 5:50 PM EST
Civil Twilight 6:50 AM EST 6:17 PM EST
Nautical Twilight 6:19 AM EST 6:48 PM EST
Astronomical Twilight 5:49 AM EST 7:18 PM EST
Moon 10:44 AM EST (2/5) No Moon Set
Length of Visible Light 11h 27m
Length of Day
10h 33m
Waxing Crescent, 39% of the Moon is Illuminated
Feb 5
Waxing Crescent
Feb 6
First Quarter
Feb 14
Full
Feb 22
Last Quarter
Mar 1
New

Hourly Weather History & Observations

Time (EST) Temp. Windchill Dew Point Humidity Pressure Visibility Wind Dir Wind Speed Gust Speed Precip Events Conditions
12:39 AM 37.4 °F 34.9 °F 35.6 °F 93% 30.06 in 4.0 mi NNE 3.5 mph - 0.03 in   Overcast
12:54 AM 37.9 °F - 36.0 °F 93% 30.07 in 2.5 mi Calm Calm - 0.03 in   Light Drizzle
1:25 AM 37.4 °F 33.8 °F 35.6 °F 93% 30.04 in 4.0 mi ENE 4.6 mph - 0.01 in   Light Drizzle
1:54 AM 37.0 °F 34.5 °F 35.1 °F 93% 30.04 in 4.0 mi North 3.5 mph - 0.01 in   Light Drizzle
2:27 AM 35.6 °F - 35.6 °F 100% 30.01 in 2.5 mi Calm Calm - 0.00 in   Light Drizzle
2:54 AM 36.0 °F 33.3 °F 35.1 °F 97% 30.00 in 1.8 mi NNE 3.5 mph - 0.00 in   Light Drizzle
3:54 AM 36.0 °F - 35.1 °F 97% 29.96 in 1.8 mi Calm Calm - 0.00 in   Light Drizzle
4:21 AM 35.6 °F 30.7 °F 35.6 °F 100% 29.89 in 1.0 mi East 5.8 mph - 0.00 in   Light Drizzle
4:39 AM 35.6 °F - 35.6 °F 100% 29.92 in 0.8 mi Calm Calm - 0.00 in   Light Drizzle
4:54 AM 36.0 °F 32.1 °F 35.1 °F 97% 29.94 in 0.8 mi NNW 4.6 mph - 0.00 in   Light Drizzle
5:40 AM 35.6 °F 31.7 °F 33.8 °F 93% 29.93 in 1.2 mi WNW 4.6 mph - 0.00 in Rain Light Rain
5:54 AM 36.0 °F 33.3 °F 34.0 °F 93% 29.94 in 1.2 mi NW 3.5 mph - 0.00 in   Light Drizzle
6:01 AM 35.6 °F - 35.6 °F 100% 29.91 in 1.5 mi Calm Calm - 0.00 in   Light Drizzle
6:54 AM 36.0 °F - 34.0 °F 93% 29.90 in 1.0 mi Calm Calm - 0.01 in   Light Drizzle
7:20 AM 35.6 °F - 33.8 °F 93% 29.88 in 0.8 mi Calm Calm - 0.00 in   Light Drizzle
7:54 AM 37.0 °F 34.5 °F 36.0 °F 96% 29.87 in 0.8 mi South 3.5 mph - 0.00 in Rain Light Rain
8:54 AM 37.0 °F 32.4 °F 36.0 °F 96% 29.87 in 0.5 mi WSW 5.8 mph - 0.00 in Fog Light Drizzle
9:54 AM 39.0 °F 34.0 °F 37.9 °F 96% 29.85 in 1.0 mi SW 6.9 mph - 0.00 in   Overcast
10:54 AM 41.0 °F 35.8 °F 39.9 °F 96% 29.84 in 1.0 mi SW 8.1 mph - N/A   Overcast
11:03 AM 42.8 °F 36.2 °F 39.2 °F 87% 29.83 in 3.0 mi WSW 12.7 mph - N/A   Overcast
11:54 AM 43.0 °F 36.8 °F 41.0 °F 93% 29.82 in 2.5 mi West 11.5 mph - N/A   Overcast
12:54 PM 44.1 °F 37.7 °F 42.1 °F 93% 29.80 in 4.0 mi WSW 12.7 mph - N/A   Overcast
1:09 PM 44.6 °F 38.1 °F 42.8 °F 93% 29.79 in 7.0 mi WSW 13.8 mph - N/A   Overcast
1:54 PM 46.9 °F - 44.1 °F 90% 29.79 in 10.0 mi WSW 12.7 mph - N/A   Overcast
2:41 PM 48.2 °F - 44.6 °F 87% 29.78 in 10.0 mi WSW 10.4 mph - N/A   Mostly Cloudy
2:54 PM 50.0 °F - 44.1 °F 80% 29.79 in 10.0 mi WSW 12.7 mph - N/A   Mostly Cloudy
3:54 PM 51.1 °F - 45.0 °F 80% 29.81 in 10.0 mi SW 9.2 mph - N/A   Mostly Cloudy
4:54 PM 52.0 °F - 44.1 °F 74% 29.84 in 10.0 mi SW 10.4 mph - N/A   Mostly Cloudy
5:54 PM 52.0 °F - 35.1 °F 53% 29.88 in 10.0 mi NW 21.9 mph 28.8 mph N/A   Scattered Clouds
6:54 PM 48.0 °F - 30.9 °F 52% 29.92 in 10.0 mi NW 19.6 mph 25.3 mph N/A   Scattered Clouds
7:54 PM 45.0 °F 39.3 °F 28.9 °F 53% 29.97 in 10.0 mi NNW 11.5 mph 19.6 mph N/A   Mostly Cloudy
8:54 PM 42.1 °F 35.2 °F 27.0 °F 55% 30.01 in 10.0 mi NW 12.7 mph 28.8 mph N/A   Clear
9:54 PM 39.0 °F 32.8 °F 25.0 °F 57% 30.05 in 10.0 mi NW 9.2 mph 20.7 mph N/A   Partly Cloudy
10:54 PM 37.9 °F 32.1 °F 25.0 °F 60% 30.06 in 10.0 mi NW 8.1 mph - N/A   Scattered Clouds
11:54 PM 37.9 °F 30.5 °F 24.1 °F 57% 30.09 in 10.0 mi North 11.5 mph 24.2 mph N/A   Scattered Clouds